Theta_e
334 325 324 324 322 317 316 313 297 303 301 295 295 297 297 305 305 304 302 305 308 315 318 323 330 331 326 324 328 330 331 327 328 317 316 331 346 347 347 347 348 349 350 352 354 355 356 357 357 356 356 355 355 354 354 353 352 352 351 351 350 350 350 350 350 349 349 350 351 351 352 353 353 353 353 352 352 352 352 352 352 352 352 353 352 352 351 351 350 351 350 351 350 351 351 350 349
324 320 321 322 318 316 306 311 302 297 299 294 296 299 302 305 303 303 301 312 313 315 320 330 332 332 332 331 332 332 330 333 334 331 337 344 346 345 347 347 347 347 349 351 352 354 354 355 356 355 355 355 355 354 353 352 351 351 351 351 350 349 350 350 350 350 350 351 351 351 352 353 353 353 352 352 351 351 352 351 353 352 352 352 351 352 352 350 350 351 349 349 351 351 350 349 348
325 323 319 322 320 311 308 309 298 294 293 289 293 298 304 301 301 308 310 314 317 318 324 327 328 330 329 331 327 327 321 338 339 340 338 345 339 341 346 347 347 347 348 350 351 353 353 354 355 355 355 354 354 353 353 352 351 351 351 350 350 350 350 350 350 351 351 352 351 351 352 352 353 353 353 352 352 351 351 351 352 353 353 352 351 351 351 351 351 350 350 350 349 349 349 348 348
330 323 313 313 305 311 304 301 298 295 292 290 290 299 299 302 306 310 313 313 313 314 325 325 323 328 329 325 328 333 330 332 339 339 338 340 340 344 346 346 347 346 347 349 351 352 353 354 354 354 354 354 353 353 352 352 351 351 350 350 350 350 349 349 349 351 352 352 352 352 352 352 352 353 353 352 352 351 351 351 351 352 351 351 350 350 350 350 350 350 349 349 349 348 347 347 346
326 320 317 313 307 306 304 298 294 294 291 292 291 299 302 304 307 309 310 312 312 317 325 326 325 330 328 325 328 325 328 337 339 343 341 343 346 346 346 346 345 344 345 348 351 352 353 354 353 353 353 353 353 352 351 351 350 350 349 350 350 349 349 348 348 349 351 351 351 351 351 352 353 352 352 352 352 351 350 350 350 350 350 350 350 349 349 349 349 349 349 348 348 346 345 344 343
317 312 312 311 304 311 302 296 296 293 296 297 296 297 301 304 306 307 309 313 316 325 325 326 324 324 324 328 329 329 338 330 340 342 344 343 347 348 347 346 343 345 347 348 350 351 352 354 353 353 353 353 352 351 351 350 350 349 349 349 349 349 348 348 347 348 349 350 350 350 351 352 352 353 352 352 352 350 350 350 349 349 349 349 350 349 349 349 349 349 349 348 346 344 344 343 342
310 309 308 310 307 305 296 293 293 295 299 301 299 300 301 304 306 308 312 312 314 322 327 324 327 324 320 328 334 339 340 344 341 343 347 346 348 348 347 345 345 345 347 347 349 351 351 352 352 352 352 352 351 351 350 349 349 348 348 348 348 348 348 347 348 348 348 349 351 352 352 353 353 353 352 352 351 350 350 350 349 349 348 348 349 349 349 349 348 349 348 346 344 343 341 341 341
316 307 306 300 297 298 292 292 293 295 298 303 304 301 305 308 308 306 308 309 311 307 323 325 324 321 322 334 325 339 343 345 346 348 348 348 348 348 347 346 345 345 346 346 348 350 354 352 352 352 352 352 351 350 350 349 349 348 348 348 348 347 347 347 347 349 349 349 350 352 352 352 352 352 352 351 350 350 349 349 349 349 348 348 348 348 348 348 348 348 346 345 344 342 340 340 341
310 308 310 300 296 299 292 291 294 299 299 302 302 306 316 307 307 306 306 308 309 312 324 325 326 320 323 329 328 336 341 345 348 351 349 349 348 347 346 346 345 345 346 347 348 349 349 352 351 351 351 351 350 349 349 349 349 348 348 348 347 348 348 348 347 347 349 349 350 350 351 351 352 352 351 350 350 350 349 348 347 348 348 348 348 348 348 348 347 346 346 345 344 341 340 340 340
306 306 297 298 298 294 294 294 293 297 299 302 302 304 306 307 306 306 305 308 309 313 322 327 328 323 328 325 329 334 337 345 347 346 348 349 349 348 346 348 347 345 345 346 347 348 348 353 351 350 350 351 350 349 349 349 348 348 348 348 348 348 349 349 349 349 349 348 349 350 350 351 351 351 351 350 350 349 349 348 347 347 348 348 348 348 348 347 347 347 346 346 343 342 340 340 340
300 303 303 299 293 291 291 291 295 298 301 304 303 306 306 306 306 306 307 305 312 317 322 328 326 327 328 327 329 339 343 345 344 343 347 348 349 348 347 348 347 345 344 344 345 347 348 348 352 350 350 350 349 349 349 349 349 349 349 349 349 349 349 348 347 346 347 347 348 349 350 350 350 351 350 350 349 349 348 348 347 347 347 347 347 347 347 347 347 346 346 343 342 341 340 341 340
296 297 299 291 290 290 292 292 296 298 301 303 301 305 304 306 305 304 305 304 310 321 326 331 326 331 326 327 327 337 343 344 344 346 348 349 348 349 348 347 346 345 344 344 346 346 346 347 348 351 350 350 350 350 350 349 349 349 349 349 349 349 348 347 346 346 346 347 348 349 350 350 350 350 349 349 348 348 348 348 347 347 347 347 347 347 347 347 347 346 345 344 342 341 340 339 340
298 299 295 293 290 291 294 294 296 300 299 298 299 306 306 306 305 306 305 307 310 312 317 332 333 333 324 326 333 340 339 342 346 348 348 347 348 349 346 344 344 344 344 345 344 345 345 346 346 347 349 350 350 350 350 349 349 349 349 348 348 348 348 347 346 346 346 348 349 349 349 349 349 348 348 348 348 347 347 347 347 346 346 346 347 347 347 347 346 345 345 344 342 340 340 340 340
299 300 299 293 295 294 294 294 296 294 292 298 303 306 307 305 306 306 305 308 313 324 329 336 336 333 327 330 331 334 338 345 347 348 348 348 348 345 343 345 344 345 343 343 343 343 343 344 345 347 347 347 347 349 350 349 349 350 350 350 350 350 349 348 348 349 348 349 349 349 349 348 348 348 348 347 347 346 346 346 346 346 345 346 346 347 347 346 346 345 344 343 342 341 340 340 339
298 301 299 296 292 293 295 292 295 294 292 301 304 305 305 308 306 307 305 318 323 332 336 339 334 328 321 326 326 334 339 344 346 347 347 347 341 340 341 345 345 345 343 342 342 342 342 342 345 345 346 346 346 346 347 348 349 349 350 350 350 350 350 350 351 351 350 349 349 349 348 348 347 347 346 346 346 346 346 346 345 345 345 345 346 347 347 347 345 345 343 343 341 340 340 339 340
302 300 298 296 291 292 295 295 298 296 293 302 304 305 305 307 312 309 312 320 321 327 328 321 330 324 331 330 334 339 342 344 345 346 346 341 339 340 341 342 343 343 343 344 344 343 342 342 343 343 343 344 344 345 346 346 349 349 349 349 349 350 350 350 351 351 350 350 350 349 348 348 346 345 346 344 346 345 346 345 345 345 345 344 345 346 346 346 345 345 344 342 342 340 340 339 339
304 302 294 293 292 293 295 295 296 291 298 303 306 304 305 305 318 320 322 327 323 326 331 334 329 333 332 337 341 343 344 346 347 345 344 340 337 337 338 340 340 339 341 341 342 344 344 341 341 340 342 342 343 344 346 346 348 349 349 348 348 349 349 349 350 350 350 349 348 349 349 344 343 342 342 341 345 342 345 346 345 345 344 344 345 345 346 346 346 345 344 343 341 341 339 339 339
303 296 294 291 293 294 298 297 299 300 301 303 306 304 305 303 316 318 321 327 330 331 330 334 338 338 340 341 342 344 344 343 344 342 342 339 336 333 334 336 336 334 337 338 341 344 344 343 343 343 344 345 344 345 346 347 347 348 345 345 345 346 348 348 347 347 350 344 349 348 344 343 340 341 343 345 343 343 344 346 345 345 345 345 345 345 345 347 346 345 344 343 342 340 340 332 335
298 296 293 292 294 298 303 301 303 302 302 305 306 306 307 305 316 318 315 318 326 326 328 332 332 335 338 340 341 342 342 341 341 341 339 336 333 331 332 333 334 335 335 337 338 342 343 342 342 342 343 344 344 344 345 346 344 344 344 344 346 348 347 347 344 345 343 345 345 345 342 337 337 337 339 345 346 345 345 346 345 345 345 346 346 345 346 346 347 345 344 343 342 341 335 331 329
300 297 292 294 299 301 302 305 304 305 306 307 308 311 311 310 316 318 314 315 325 324 325 328 328 330 333 336 338 340 340 340 340 340 340 337 334 332 332 332 334 335 335 336 337 341 342 341 341 342 342 342 342 343 344 343 342 342 342 343 343 343 343 344 341 340 339 340 340 339 338 335 337 336 345 346 347 343 344 345 345 345 346 345 346 345 346 346 346 346 344 344 343 341 333 333 331
300 297 294 297 300 298 302 306 305 305 305 306 309 312 310 311 313 314 313 314 320 324 329 328 327 330 332 334 336 337 338 338 337 337 337 336 335 335 333 334 334 335 336 338 337 339 342 342 343 342 342 342 342 343 343 342 344 343 343 342 341 340 339 338 338 340 339 341 339 339 339 336 336 337 338 341 341 342 340 340 338 337 338 339 345 338 339 343 344 342 340 341 337 337 335 332 332
302 298 300 301 301 300 303 306 306 305 305 304 308 308 312 315 312 314 315 312 312 322 329 331 332 332 332 333 335 336 336 336 336 336 336 336 335 334 335 335 337 337 338 336 336 339 340 342 343 343 343 342 341 340 342 345 344 341 340 339 338 340 339 338 338 339 339 337 339 338 339 337 337 335 337 340 340 340 339 337 337 335 335 336 342 339 339 340 341 340 339 339 337 336 334 333 333
295 298 300 301 302 300 304 306 305 304 304 303 304 305 315 313 312 315 316 315 318 326 331 334 333 334 335 336 335 336 335 335 337 337 337 335 335 335 335 337 337 336 337 337 339 339 339 340 341 341 341 341 341 342 342 342 340 341 341 338 336 337 339 337 337 338 338 338 339 340 336 335 336 335 337 338 338 339 339 339 337 336 335 333 335 336 335 339 341 340 338 337 336 335 335 334 335
299 295 300 301 303 302 304 305 305 304 304 303 305 305 312 311 309 315 315 317 320 325 328 334 335 335 336 334 336 334 334 336 336 337 337 337 337 336 337 336 337 338 338 339 339 339 339 340 340 340 340 339 340 341 340 340 341 342 340 342 337 340 340 337 335 337 336 339 339 339 340 338 338 335 336 337 337 338 338 337 338 339 338 336 336 332 331 335 340 340 338 337 336 334 334 334 335
298 298 301 303 303 304 304 303 303 305 304 305 304 303 311 312 311 313 312 315 320 325 330 332 333 334 335 334 332 332 333 335 336 337 338 338 337 338 337 338 338 337 337 339 339 339 340 341 341 341 341 341 341 341 340 340 341 342 340 337 336 341 338 337 337 338 338 339 338 337 342 338 339 338 336 337 337 336 337 338 337 336 338 338 337 334 333 331 335 337 336 337 336 334 333 334 335
300 300 302 302 303 303 302 304 304 304 305 306 303 301 304 313 314 313 314 319 323 325 327 329 332 333 333 332 331 331 333 335 337 336 336 338 338 337 336 337 337 336 337 339 338 338 341 342 341 341 341 341 340 340 340 341 341 341 341 340 339 341 337 337 338 337 338 338 337 338 339 337 337 336 336 337 336 336 335 336 336 337 337 337 337 336 335 334 334 333 334 335 335 334 335 335 334
302 302 302 302 303 302 303 303 305 304 304 303 302 300 301 306 312 306 315 319 322 322 323 327 329 332 333 332 332 332 334 335 336 337 337 337 337 336 336 336 335 336 338 336 337 338 340 342 342 342 342 343 340 340 340 341 341 340 341 342 342 338 338 338 337 337 336 334 337 338 339 338 337 336 336 336 336 336 335 335 335 336 337 337 336 335 335 335 334 332 332 333 334 331 331 332 334
302 302 301 301 302 303 302 303 304 302 302 302 302 300 302 305 307 304 311 318 321 321 323 323 329 332 333 333 334 335 335 336 335 335 334 334 334 335 335 334 334 335 334 334 335 337 339 338 340 342 341 342 342 342 342 340 340 341 341 340 340 339 339 338 337 338 339 336 336 336 336 337 337 335 335 334 335 335 335 335 336 336 337 336 336 336 336 335 335 335 334 334 335 334 332 332 333
301 303 297 299 301 298 301 301 302 302 301 303 303 300 298 303 302 308 313 318 321 322 321 325 332 332 332 333 334 334 334 332 334 334 334 334 335 336 336 336 335 334 335 336 337 339 338 336 338 339 341 341 338 338 339 339 342 342 341 340 340 341 337 337 336 336 336 335 335 335 335 337 337 336 335 335 337 336 336 336 336 337 338 337 336 336 337 336 335 335 335 335 333 331 332 331 333
302 301 298 297 296 294 299 302 302 301 302 303 302 289 292 299 303 308 313 315 319 320 319 327 329 330 332 332 332 330 331 331 334 334 335 335 336 337 336 337 338 336 335 336 337 338 341 340 339 339 340 340 339 339 339 338 340 341 341 341 341 339 338 338 338 338 338 336 335 334 336 338 338 338 337 336 336 336 336 336 336 336 337 335 336 336 336 336 335 334 334 333 334 331 329 331 330
294 299 298 291 291 289 298 300 300 299 302 302 302 289 291 299 301 309 311 312 314 317 322 326 329 330 330 330 328 326 327 330 333 335 336 337 337 337 338 338 338 337 337 336 335 337 338 339 341 340 339 337 339 338 337 337 340 341 341 341 339 339 339 338 337 336 336 336 338 336 338 338 339 338 337 337 336 335 336 335 335 335 336 335 334 335 336 335 335 334 333 331 330 330 330 329 330
296 292 288 292 289 289 297 301 300 297 301 303 300 293 291 298 302 308 311 311 318 318 323 327 329 329 329 328 326 325 324 327 332 336 337 337 338 337 338 338 337 336 336 337 338 339 339 339 340 339 338 337 335 337 338 338 338 338 337 343 339 339 339 337 337 336 335 337 340 339 340 339 339 338 338 338 336 336 335 335 334 335 336 335 334 334 335 334 332 333 333 332 329 329 331 330 331
294 290 292 289 290 290 294 299 301 301 300 301 299 290 295 295 305 308 310 312 315 318 323 325 327 327 326 325 324 324 323 324 330 335 336 338 338 338 338 337 338 338 338 337 337 337 338 338 339 339 337 337 336 335 337 338 338 335 335 335 336 337 337 338 337 336 335 336 336 337 337 339 339 338 339 339 337 336 335 335 335 335 336 334 333 333 334 333 330 332 332 332 330 328 328 329 331
289 292 287 292 291 291 288 297 300 301 300 296 299 295 295 302 306 308 310 314 320 318 320 321 322 322 323 322 323 322 323 325 329 334 333 337 337 338 339 340 338 338 339 338 338 338 337 338 338 338 338 338 337 337 337 338 339 337 336 336 339 338 336 336 336 335 335 335 336 336 337 338 338 338 338 338 337 337 335 335 334 336 337 335 334 333 333 333 333 332 331 331 330 329 328 328 329
286 287 288 288 292 293 292 292 297 299 300 297 296 295 299 304 305 308 308 318 320 318 319 320 320 321 321 321 322 323 326 329 332 334 335 336 336 337 338 338 338 339 339 338 337 336 337 337 338 339 338 339 338 338 340 339 339 338 337 337 337 335 333 335 335 334 335 335 335 336 336 337 339 339 339 339 337 337 336 335 335 335 336 335 334 334 333 332 332 330 330 330 329 329 328 328 329
293 292 291 291 288 290 291 296 300 300 296 296 295 293 296 300 301 311 317 320 319 319 320 320 321 321 322 322 324 325 325 325 327 329 330 332 333 333 334 336 336 336 337 338 337 338 336 335 337 337 337 338 338 337 337 336 336 336 334 334 334 334 332 333 334 334 334 334 335 335 336 336 337 337 336 336 336 337 335 335 335 335 334 334 334 333 333 332 331 330 329 329 327 328 332 329 328
297 295 293 292 292 293 296 298 300 301 296 295 295 295 298 299 305 315 317 318 318 318 318 319 321 322 322 322 322 321 321 322 324 324 326 327 328 329 329 330 331 332 333 335 337 337 337 337 336 334 336 336 334 334 334 333 330 332 333 333 333 333 332 334 334 334 334 333 333 334 335 335 334 333 334 334 334 337 336 333 334 334 335 335 334 334 333 333 333 331 329 328 327 326 328 328 328
297 295 293 291 293 291 296 297 300 301 297 294 295 296 300 310 314 316 318 317 315 317 318 319 321 321 321 321 319 319 319 321 321 321 322 324 325 326 326 326 328 327 328 330 331 333 334 336 336 337 337 337 336 337 335 336 333 334 331 331 331 332 331 332 331 333 334 334 334 334 333 332 332 333 334 333 335 335 334 333 333 334 335 334 334 335 334 335 333 332 331 328 327 327 326 328 328
296 293 291 290 291 295 297 299 300 300 297 294 296 299 307 311 313 314 314 314 314 316 316 316 318 318 318 318 318 317 317 317 317 318 320 320 322 323 323 324 325 326 326 327 329 330 330 330 332 335 336 336 335 337 335 333 335 335 333 332 334 332 333 333 332 333 334 333 333 335 334 333 333 334 334 335 334 335 335 334 334 335 336 336 334 333 333 333 334 333 332 330 327 327 327 328 329
293 291 289 289 293 291 287 296 299 299 297 293 302 304 306 310 312 312 314 313 313 314 314 314 314 313 313 315 316 315 315 315 314 315 316 318 319 320 321 322 323 324 324 325 326 327 328 328 329 330 333 336 335 336 336 335 335 336 337 336 335 334 332 336 334 334 333 331 331 333 334 334 334 333 335 336 338 338 336 335 335 336 335 336 335 333 332 332 332 332 329 329 329 327 328 327 330
294 294 292 292 293 294 292 294 298 299 299 304 304 301 300 306 306 308 311 314 313 313 313 313 314 314 313 314 314 315 314 314 314 314 315 316 316 317 318 320 322 322 323 324 325 326 327 327 328 328 329 331 333 332 333 335 335 334 334 334 334 333 332 331 332 330 332 333 332 331 332 333 333 333 334 336 338 337 336 337 336 336 335 335 334 333 331 331 330 330 331 329 329 328 327 328 329
292 295 295 295 296 294 295 298 296 293 293 304 303 290 292 300 305 306 309 309 309 311 309 310 311 312 312 311 312 313 315 315 314 314 315 315 316 317 318 319 319 321 322 323 325 326 326 326 326 327 327 329 329 329 330 332 332 333 331 330 328 326 325 326 327 327 329 331 331 332 334 333 333 332 334 335 336 335 336 337 336 336 336 334 331 329 328 328 328 331 328 329 327 330 328 327 327
289 292 297 297 297 296 295 296 294 288 289 300 305 292 284 298 301 304 306 306 306 307 307 308 309 310 310 311 311 312 313 313 314 314 315 315 316 316 317 317 318 319 321 323 324 324 324 324 324 324 325 326 327 327 329 330 330 331 331 332 332 329 327 327 330 331 330 330 333 333 335 336 338 335 333 334 335 336 336 335 335 334 333 331 330 331 330 330 330 329 330 330 330 329 328 325 325
288 297 298 298 297 296 296 296 293 290 300 303 303 299 291 290 298 305 306 304 303 304 305 306 308 309 309 310 311 312 312 312 313 313 314 315 315 316 316 317 318 319 321 321 322 322 321 321 322 322 323 324 325 326 326 328 328 329 329 330 330 331 330 329 329 328 328 329 329 331 333 334 335 335 335 334 335 335 335 334 334 333 335 332 330 331 331 331 331 330 331 330 330 330 328 326 325
292 297 299 296 297 297 296 295 293 293 298 292 296 301 291 289 297 305 305 301 301 302 303 304 306 308 309 310 311 311 312 313 313 313 313 314 314 315 316 317 319 320 320 319 319 319 321 322 322 323 322 323 325 326 326 327 328 327 327 327 326 328 330 331 332 332 328 328 327 329 331 333 334 334 335 335 335 335 336 334 333 333 331 331 332 331 332 332 330 329 328 328 327 328 328 328 327
296 299 299 299 299 297 296 293 292 292 292 288 293 298 287 289 298 301 304 301 300 301 303 304 306 307 308 309 310 311 312 312 313 313 313 314 315 316 317 317 317 318 319 319 318 319 320 320 320 321 321 321 323 324 325 325 326 326 325 325 325 325 326 327 328 328 329 329 328 329 330 331 332 332 334 334 334 335 335 334 333 332 331 332 332 332 331 330 330 329 329 328 328 328 330 329 328
299 299 296 296 296 293 293 293 291 289 283 286 293 296 293 284 295 299 299 300 302 303 304 305 306 307 308 310 310 311 311 312 312 313 313 314 316 316 316 315 316 316 316 317 317 317 318 318 318 318 320 320 321 322 323 323 324 324 323 324 324 324 325 324 323 323 326 326 327 329 330 331 333 333 332 333 333 334 334 333 332 331 331 331 331 331 330 330 329 330 330 329 328 328 327 328 327
298 294 292 291 289 292 288 289 291 283 279 287 292 295 296 283 290 299 302 305 305 304 302 304 305 306 307 308 309 310 311 311 312 312 312 313 313 314 314 313 313 314 315 315 315 316 316 316 315 315 317 318 319 320 321 321 321 322 323 323 323 323 323 323 322 322 324 324 325 325 327 328 329 330 330 329 330 331 332 332 332 332 332 330 330 330 330 330 329 330 330 330 329 328 328 328 329
296 292 290 285 281 282 281 284 281 281 279 287 292 294 290 292 296 300 303 304 305 305 305 305 305 306 307 308 309 310 311 311 311 311 311 312 311 311 310 311 313 313 313 313 314 315 315 314 313 313 314 315 316 318 319 320 320 320 321 320 320 321 320 322 323 323 323 322 322 323 324 325 327 328 328 329 330 332 332 332 332 329 330 331 331 329 328 328 328 329 329 329 329 328 329 329 328
293 291 286 283 279 279 275 278 280 282 290 292 292 298 292 296 299 303 302 304 305 305 306 306 306 306 307 308 309 309 309 310 310 310 311 311 311 311 311 311 312 313 312 313 314 314 313 313 313 313 313 314 315 315 317 318 318 319 319 318 319 319 320 321 322 321 320 320 321 321 323 324 325 326 328 329 330 332 332 332 331 330 330 331 330 330 329 329 330 330 328 329 329 329 329 328 328
292 295 290 285 284 283 275 278 276 278 281 289 295 292 288 291 293 304 304 305 306 306 307 307 307 308 308 309 309 309 308 308 309 308 309 309 310 311 310 311 312 313 313 313 314 314 315 312 313 312 312 313 313 314 315 315 316 317 316 317 318 318 319 320 320 320 319 318 319 321 322 323 323 324 326 329 330 330 331 331 331 330 331 330 330 329 329 329 329 329 329 328 328 329 328 327 327
293 294 294 287 284 286 280 282 283 284 283 284 289 287 296 296 304 305 305 305 305 306 306 306 305 307 307 307 306 307 307 307 308 308 308 309 311 311 311 311 312 314 313 313 313 313 312 312 313 313 312 312 312 314 313 313 314 314 315 316 316 318 319 319 319 319 319 319 319 319 319 320 321 322 325 326 327 329 330 330 331 330 330 330 330 330 329 329 329 327 327 327 327 329 329 328 328
289 292 286 289 295 292 284 286 291 283 283 282 291 294 296 303 304 303 304 304 304 305 305 305 304 305 305 305 305 306 306 306 307 306 307 309 310 311 311 312 312 312 310 310 311 311 311 311 311 311 311 311 312 313 312 312 313 313 314 315 315 316 317 316 317 317 318 319 318 317 317 318 320 321 322 325 325 327 329 329 329 330 329 329 329 329 328 328 329 328 327 327 326 328 327 326 327
292 288 290 297 297 296 287 280 283 281 278 280 292 290 292 293 287 302 302 301 302 303 304 305 305 304 303 303 304 305 305 305 307 307 308 309 309 310 310 310 311 310 310 309 310 310 311 312 311 310 310 310 311 313 313 313 313 312 313 314 315 315 315 316 316 316 317 316 316 315 316 317 318 320 321 322 323 325 328 330 328 328 328 328 328 328 328 328 328 326 326 326 327 328 327 327 326
292 290 297 290 282 285 289 283 278 277 277 283 290 294 294 294 293 299 299 299 301 302 303 303 302 302 302 303 304 304 304 305 306 307 307 308 308 308 309 308 308 309 310 310 310 311 311 310 311 310 310 310 311 313 314 314 313 314 313 313 314 314 314 315 316 316 315 314 314 313 313 315 317 318 319 320 321 322 322 323 324 324 325 325 326 326 327 327 327 327 327 326 327 328 326 326 327
298 298 294 296 291 288 284 283 284 283 278 283 287 292 286 296 297 300 299 301 301 301 301 300 301 302 302 303 303 304 304 305 305 306 307 308 308 308 307 307 308 309 309 309 309 309 309 310 310 310 310 310 311 312 314 312 312 312 312 312 313 314 314 314 314 314 313 313 314 312 311 312 314 316 317 319 318 318 317 317 318 319 320 322 323 325 325 326 326 326 326 326 326 327 326 326 326
289 289 288 292 293 294 290 294 287 282 279 283 284 282 287 294 303 301 301 302 301 301 300 301 301 302 303 303 303 304 304 304 305 306 306 306 305 305 306 307 308 309 309 309 308 308 308 309 309 310 309 310 310 311 311 311 311 311 312 311 310 312 312 312 312 312 312 311 311 311 310 311 312 313 314 315 315 315 315 315 315 316 317 319 322 325 326 325 326 326 326 327 327 326 326 326 325
291 288 287 289 289 286 283 280 291 290 284 281 284 281 290 299 303 305 303 302 302 302 301 300 301 302 302 303 303 304 304 304 305 305 305 305 305 304 305 305 306 306 307 306 307 307 307 307 309 309 309 310 310 311 310 310 310 310 310 310 310 311 311 310 310 311 311 310 310 309 309 309 309 310 312 312 312 313 314 314 313 309 308 306 306 310 313 320 325 326 326 326 325 326 325 324 324
Wind_Speed
6 4 4 4 3 3 3 1 1 1 1 4 5 2 7 8 7 11 9 3 7 3 6 11 13 9 10 11 17 13 8 3 3 3 5 4 11 16 19 18 16 14 14 10 11 10 11 14 16 17 17 16 16 16 15 15 15 14 15 15 15 15 14 14 13 13 13 12 12 12 13 13 13 13 13 12 13 13 13 14 14 13 14 13 13 13 14 14 15 13 13 14 14 13 14 12 10
4 5 4 3 4 0 2 1 1 2 1 3 8 4 12 9 4 9 2 6 3 5 13 17 19 20 22 19 14 15 13 11 11 10 11 11 14 14 18 18 16 16 12 10 11 10 10 12 16 16 16 16 16 16 15 15 14 14 14 14 14 14 14 13 13 13 13 13 12 12 14 14 14 14 14 13 13 13 12 14 14 14 14 14 14 13 13 15 14 12 15 11 13 13 12 11 9
4 5 7 2 1 2 2 1 1 2 3 5 7 8 7 10 9 3 5 4 10 10 13 13 13 12 12 11 14 8 2 8 12 10 9 12 15 8 15 16 16 16 14 10 11 10 9 11 15 16 16 15 15 16 15 14 14 14 14 14 14 14 13 12 13 13 13 12 11 12 13 14 14 14 14 14 14 14 14 13 14 14 13 13 13 12 11 13 13 12 11 12 12 12 11 10 8
3 3 2 4 2 2 1 1 2 3 3 6 6 10 2 2 5 4 6 3 5 6 7 12 14 4 17 17 13 14 8 5 7 8 4 6 11 12 14 16 14 13 12 11 12 10 9 12 15 15 15 15 15 15 15 14 14 14 14 13 14 13 13 12 14 13 13 12 12 11 12 13 13 14 15 15 15 15 14 13 13 13 13 13 12 11 11 12 12 12 13 12 12 10 9 8 5
2 4 3 1 1 1 1 3 3 2 7 5 5 6 3 1 6 3 3 3 4 9 12 12 12 10 13 11 5 3 5 8 6 6 7 11 14 13 14 14 13 12 12 12 12 11 11 16 14 14 14 15 14 14 14 14 14 14 13 14 13 13 13 13 13 13 12 13 12 12 12 12 13 14 15 15 14 14 13 13 12 13 13 13 12 11 11 11 12 12 12 11 10 9 7 6 4
4 4 3 2 2 0 2 3 4 7 9 4 7 5 3 2 4 4 3 5 9 16 15 11 12 10 11 10 5 6 11 5 8 9 12 11 17 16 15 13 12 13 12 11 11 9 10 16 14 14 13 14 14 14 14 14 13 13 13 13 13 13 13 13 13 12 13 13 12 11 10 10 12 14 14 14 14 14 14 13 13 12 12 11 10 9 9 10 10 11 11 10 8 7 5 4 3
2 1 1 1 3 0 2 2 7 6 10 10 11 10 6 2 1 2 11 5 7 15 17 15 18 15 11 4 13 10 8 12 8 9 11 14 15 15 14 12 14 14 14 11 10 11 12 15 14 14 14 14 14 14 14 13 13 13 13 13 13 13 13 13 13 12 12 13 12 12 12 12 13 14 13 14 14 13 12 13 13 12 11 10 10 9 10 10 10 10 9 8 7 5 3 2 3
3 0 1 2 2 1 3 6 7 6 10 8 9 4 1 1 1 3 5 3 1 4 10 13 13 18 11 8 8 9 14 12 15 16 17 13 13 13 14 15 15 14 13 11 10 10 16 15 15 14 13 13 13 13 13 13 13 13 12 12 12 12 11 12 11 10 11 12 12 13 13 13 13 13 13 12 13 12 12 12 12 11 11 11 10 9 9 10 10 9 9 7 6 3 2 3 4
2 3 2 2 3 2 2 6 10 8 11 10 12 9 6 2 4 3 2 3 4 8 16 14 18 16 6 14 9 6 9 12 15 15 14 14 12 12 13 15 15 12 13 11 10 9 9 14 14 14 13 13 13 14 13 13 12 12 12 12 12 10 10 10 11 10 11 12 11 12 13 13 14 13 13 13 12 12 11 11 11 11 11 11 10 9 9 10 9 8 7 6 5 2 3 4 6
2 4 2 2 1 5 7 7 7 11 12 15 14 9 3 3 4 2 1 6 6 7 14 9 17 17 13 15 9 5 7 11 13 13 10 11 11 11 14 16 15 16 13 11 9 9 8 15 14 14 13 14 13 13 13 12 11 11 11 11 10 9 9 10 9 9 11 12 12 12 13 14 14 13 13 12 12 11 11 10 10 11 11 10 9 9 9 9 8 7 6 6 4 3 4 5 6
3 3 2 2 3 5 7 8 9 9 11 12 6 8 2 2 4 1 0 2 6 15 17 20 16 15 12 9 6 6 9 11 12 11 10 10 11 16 16 15 15 16 14 12 10 9 9 9 17 14 14 13 13 12 11 10 10 10 10 10 9 9 9 9 10 11 12 12 12 12 12 12 12 12 11 11 10 10 10 10 10 10 10 10 8 7 8 7 7 7 7 5 3 2 4 5 6
3 3 2 3 5 6 6 6 10 10 10 11 1 3 4 5 3 2 2 2 6 18 14 13 6 16 12 9 5 5 10 11 9 9 10 10 14 17 16 12 14 12 13 13 11 8 8 9 9 15 14 13 13 12 11 11 11 10 10 10 9 9 9 9 10 10 11 11 11 11 11 11 11 11 11 10 9 9 9 9 8 9 9 9 8 7 6 7 7 7 6 5 3 3 4 5 5
5 3 3 3 4 4 9 9 10 10 8 3 4 1 5 6 2 0 2 4 7 8 9 18 17 12 5 5 4 8 10 8 9 8 10 12 15 16 16 15 13 9 9 9 10 10 8 7 7 7 10 14 12 11 12 12 11 11 10 10 9 9 10 9 10 10 11 12 11 10 11 10 10 10 9 9 8 7 7 8 7 7 8 7 6 6 6 6 6 6 5 4 2 2 5 6 6
4 3 2 5 4 5 7 8 9 8 6 3 6 4 4 4 1 2 1 1 8 14 13 15 14 18 12 7 5 6 7 8 10 9 10 15 16 16 17 9 11 10 11 10 10 9 8 7 7 7 8 7 7 10 12 13 12 11 11 9 9 8 8 8 9 11 12 11 11 10 10 9 9 9 9 8 8 7 6 6 6 6 6 6 6 4 6 5 5 5 5 4 1 2 4 6 7
5 3 1 3 5 4 4 5 8 6 3 2 3 7 5 2 3 1 2 16 17 15 12 15 13 13 6 10 5 7 9 10 11 11 15 19 20 15 11 8 10 9 10 10 9 8 8 8 8 7 6 6 6 5 5 9 13 12 11 11 10 9 8 7 11 12 12 11 10 10 9 9 8 7 6 7 7 7 6 5 4 5 5 5 5 4 3 5 5 4 4 3 2 1 3 5 7
5 2 2 3 7 5 7 5 9 9 3 3 5 7 9 4 7 1 1 9 9 10 9 4 3 4 13 9 14 12 12 11 10 11 18 22 19 12 7 2 6 9 9 7 5 6 7 8 8 7 7 7 5 5 6 6 10 12 11 11 11 10 10 9 11 11 11 10 10 10 9 6 7 6 8 5 6 6 6 4 4 5 4 4 3 2 3 4 4 4 4 3 2 2 3 5 7
3 3 3 3 8 5 5 3 5 7 3 1 3 3 5 7 9 7 8 17 18 13 16 12 10 11 11 12 16 15 12 11 13 17 19 16 13 9 4 2 6 6 6 5 5 5 7 7 7 6 7 7 7 7 6 6 8 11 9 10 11 10 10 10 9 10 9 8 7 8 6 3 3 4 5 3 7 2 3 2 6 5 4 3 2 1 3 3 4 4 4 4 3 3 2 4 6
3 3 3 8 7 7 5 6 2 4 1 1 0 4 5 4 5 7 9 19 17 18 17 17 20 16 17 15 14 14 13 11 13 13 13 14 11 9 4 1 4 6 5 4 3 5 6 5 5 6 5 7 7 6 5 5 6 8 6 5 4 6 7 8 6 3 5 3 7 5 3 2 2 2 2 7 5 4 4 5 5 5 5 4 2 3 3 4 4 5 5 4 4 3 3 2 4
4 2 4 9 4 8 6 5 1 5 1 4 4 5 7 4 7 5 3 15 17 16 14 17 17 16 15 15 14 13 10 10 12 13 17 16 12 11 7 3 5 6 5 2 1 4 5 6 6 7 6 6 7 6 6 6 6 5 5 5 5 6 6 4 4 3 2 2 2 3 2 2 2 1 0 4 4 7 5 8 5 5 4 3 3 4 4 5 6 5 5 5 4 4 2 2 3
5 3 7 8 4 8 11 2 5 5 6 6 2 1 2 5 6 3 4 13 19 16 13 13 15 14 14 13 12 10 7 7 7 10 14 15 13 11 9 5 6 6 5 2 2 3 4 6 6 5 5 5 6 6 6 6 5 5 5 5 5 5 4 3 3 3 3 4 3 2 1 1 2 1 2 3 3 5 5 7 7 6 6 4 4 3 4 5 6 6 6 6 3 2 3 3 3
2 5 7 5 4 3 7 2 4 5 7 5 2 2 6 7 4 3 7 12 14 11 13 17 16 16 15 12 11 8 7 8 13 13 15 15 12 7 8 6 6 6 5 4 2 3 4 6 5 6 5 5 5 5 5 5 4 4 4 3 4 4 5 2 3 3 2 4 3 0 1 2 1 1 1 1 1 4 3 3 2 2 2 2 4 2 2 3 4 3 3 3 3 3 3 5 4
1 10 11 7 7 10 14 1 4 3 6 6 3 2 1 1 3 5 11 7 8 11 12 18 17 16 15 14 10 9 8 10 12 14 14 12 11 9 8 5 5 5 5 4 3 4 6 6 6 5 5 5 5 5 5 5 5 3 2 4 5 5 4 2 1 3 1 3 3 2 1 1 2 1 1 0 1 3 3 2 2 2 2 3 3 4 3 4 4 4 4 4 4 4 5 5 5
7 6 5 6 7 9 9 0 4 5 4 7 4 4 1 2 2 6 7 11 11 17 18 19 18 16 15 12 11 10 13 13 13 13 13 14 13 11 9 7 7 7 5 5 4 3 6 5 5 5 6 5 5 4 5 5 4 3 2 3 4 4 3 2 1 2 1 1 3 2 2 1 1 1 1 0 1 2 3 1 2 1 2 3 3 5 5 5 5 5 5 5 5 5 6 6 6
6 5 4 9 10 12 4 1 5 2 5 5 2 6 4 3 2 3 10 12 16 19 20 20 19 17 16 14 11 13 13 13 13 13 13 12 11 11 9 8 6 5 6 6 4 5 6 6 5 5 5 5 4 5 6 5 4 4 2 1 3 3 4 3 2 1 2 0 3 2 2 2 3 2 1 1 0 2 2 2 1 1 4 4 2 2 4 5 5 5 5 5 5 5 5 5 6
7 7 6 8 9 6 2 5 4 1 5 6 4 4 5 5 1 3 8 8 16 19 21 21 19 17 15 16 15 14 14 13 14 13 11 9 10 9 7 6 7 6 7 5 4 4 6 6 7 6 6 6 5 6 5 5 5 4 2 0 1 4 5 4 4 4 4 4 2 2 3 3 4 4 3 3 3 3 3 3 3 3 2 4 3 3 2 3 3 6 6 6 5 5 4 2 3
7 6 4 6 7 6 4 7 3 5 3 1 1 4 3 7 8 4 7 18 22 21 20 19 18 18 16 14 14 13 12 12 11 12 11 9 9 10 8 6 6 6 6 5 4 3 5 6 6 6 5 5 5 4 5 5 5 5 4 2 4 2 5 4 4 4 4 3 3 3 2 2 3 4 4 3 4 3 3 3 2 3 3 4 4 5 4 3 3 3 3 4 5 2 3 3 2
9 10 10 8 10 6 5 4 3 3 2 3 2 4 4 1 9 4 5 16 20 19 20 19 19 17 15 13 12 11 13 11 11 10 11 9 8 8 7 6 6 6 6 4 3 3 3 4 5 6 5 6 4 4 4 4 5 5 4 3 2 1 3 4 4 2 1 1 4 4 4 3 3 3 3 3 2 2 2 3 3 2 3 4 3 4 2 2 3 4 2 2 2 3 2 3 0
7 7 6 9 11 6 2 4 1 2 3 5 4 5 6 2 2 9 10 10 14 20 18 19 19 17 15 15 13 11 12 9 8 7 9 8 6 6 6 6 7 7 7 4 3 2 3 3 4 5 6 6 5 5 4 4 3 4 7 5 4 3 2 4 4 3 3 3 3 3 3 4 3 3 3 2 2 2 3 3 3 4 4 4 4 4 3 2 2 3 3 2 0 3 1 1 0
7 1 2 6 11 5 4 2 4 4 3 6 7 3 4 3 0 14 11 15 18 19 18 19 19 16 16 14 12 10 10 10 6 9 7 6 5 5 7 6 8 6 4 5 4 3 3 2 4 3 3 3 6 5 4 1 5 5 6 6 5 3 2 2 3 5 5 5 4 4 3 4 4 4 4 4 3 4 4 5 5 5 5 3 3 4 5 3 2 1 1 2 1 0 3 3 4
3 6 5 3 3 5 4 3 4 5 3 8 7 1 4 3 4 3 10 12 20 19 16 18 15 15 15 14 13 11 10 8 8 8 8 6 5 6 7 6 6 8 6 5 4 4 3 2 2 2 3 6 5 4 3 1 3 5 5 5 5 4 4 4 4 4 5 4 3 3 3 3 4 5 5 4 5 4 5 5 5 5 4 3 3 3 4 3 3 1 0 1 1 2 4 4 4
3 2 6 3 1 4 3 4 6 7 5 9 7 3 5 7 1 10 6 8 13 18 18 17 16 16 14 13 12 11 8 7 8 9 9 8 5 4 6 7 7 6 7 6 6 6 4 3 2 2 3 5 5 5 4 2 2 4 5 5 4 5 4 4 3 0 0 2 2 3 4 4 4 4 3 4 4 4 5 4 4 4 3 3 4 4 3 3 3 3 3 4 2 1 4 4 4
2 3 3 2 4 3 6 8 6 10 3 9 6 2 6 8 6 7 10 6 19 18 20 15 15 16 14 12 11 9 7 2 3 7 8 8 5 4 6 6 7 8 7 6 6 5 4 3 3 3 4 3 5 3 3 3 1 3 4 2 3 3 3 1 1 0 1 3 4 5 5 5 5 5 5 5 5 5 5 5 5 4 4 4 5 4 3 4 3 3 4 4 4 4 3 5 5
3 5 2 4 5 6 5 9 7 11 4 7 5 3 6 2 7 8 4 9 18 16 16 16 19 15 12 11 9 9 8 5 5 7 7 7 6 5 4 7 8 7 6 8 5 3 3 1 1 1 3 5 3 2 1 1 2 1 4 2 2 2 3 2 1 0 2 4 2 3 2 4 4 4 4 5 5 5 5 5 5 5 5 6 5 5 4 3 3 3 4 3 4 5 5 4 4
4 5 4 4 7 5 4 7 10 8 5 5 7 4 1 5 8 6 5 14 24 17 16 14 12 11 11 10 11 9 7 6 6 9 8 6 7 8 7 8 8 7 7 7 6 5 4 2 1 2 3 3 2 1 2 0 0 1 1 5 2 0 0 0 1 0 4 5 4 5 3 3 3 3 4 5 5 5 5 5 4 5 5 5 4 4 4 3 3 4 4 3 4 4 5 5 5
5 5 6 5 5 8 7 8 9 7 8 6 7 2 2 11 7 9 3 18 18 16 16 15 13 12 12 11 10 9 8 9 7 7 9 7 8 6 7 7 6 7 6 7 11 8 4 2 1 1 2 3 3 2 3 1 1 2 3 5 2 1 1 1 1 1 4 5 6 4 3 2 3 4 5 5 5 5 5 5 5 4 4 4 4 4 4 4 4 3 4 4 3 4 5 5 5
7 9 9 8 6 7 8 10 11 12 7 8 7 7 2 6 7 19 23 19 18 15 15 12 11 12 11 11 10 11 11 11 9 11 11 11 10 10 10 10 10 10 10 8 9 7 5 5 4 4 3 3 0 1 2 2 3 5 3 1 4 5 5 5 2 7 7 5 4 4 4 3 3 4 4 4 4 5 5 5 5 3 3 4 5 5 6 5 6 5 5 4 3 3 4 4 2
10 9 9 11 10 10 5 13 11 13 5 9 6 6 7 6 14 17 17 18 17 16 13 11 10 10 10 11 11 12 12 9 9 11 11 11 10 9 10 10 10 12 11 10 9 8 8 6 4 5 6 6 2 3 2 2 1 0 1 5 4 0 5 6 6 8 7 3 5 5 5 5 4 3 3 3 4 4 4 4 4 5 4 5 6 7 6 6 5 4 3 3 4 3 4 3 3
11 6 11 10 12 11 9 13 14 12 7 8 7 8 9 16 14 14 14 18 16 14 14 12 12 11 10 12 12 12 9 7 10 11 10 10 9 10 10 9 11 11 9 10 9 8 7 7 7 6 3 3 2 1 2 2 1 1 1 2 3 6 4 5 5 5 7 9 11 8 3 4 3 4 3 4 5 5 5 5 5 6 6 6 6 6 5 5 4 4 4 3 3 5 4 4 3
12 7 4 6 11 10 6 13 16 14 8 10 8 14 13 15 15 13 16 15 12 11 12 11 13 12 10 10 11 10 10 9 10 8 8 8 9 9 9 9 9 8 8 9 7 9 9 8 7 5 3 3 3 3 3 1 0 1 2 2 1 1 7 7 4 5 4 6 10 9 9 9 2 4 5 6 6 6 7 7 7 7 7 7 6 5 5 5 5 5 5 6 4 3 4 2 5
8 4 4 9 8 6 5 12 17 12 7 6 14 16 12 16 14 15 11 14 12 14 15 14 12 12 12 10 9 9 10 9 10 8 8 8 8 8 8 9 8 8 8 8 8 7 5 5 6 7 6 5 5 5 3 2 1 2 1 3 2 1 1 3 5 8 10 10 9 9 10 8 8 7 5 5 6 8 9 9 8 7 7 7 7 6 4 6 5 6 5 5 4 6 4 6 6
7 9 8 9 12 10 4 12 16 14 4 13 17 11 8 8 13 10 10 11 13 12 15 13 12 11 10 10 11 10 10 8 8 8 8 7 8 8 8 7 6 8 7 7 7 6 5 6 6 6 5 5 5 6 7 4 4 4 3 2 1 1 1 1 0 2 3 5 6 8 8 8 9 8 10 9 7 5 6 8 7 7 6 6 5 4 3 4 5 6 6 7 8 8 8 6 6
7 8 11 13 15 8 5 14 12 6 4 11 17 6 1 4 11 14 9 9 11 9 13 13 11 11 9 10 10 8 8 7 8 8 7 7 7 7 8 7 7 6 7 4 4 5 6 6 7 6 6 6 7 8 8 6 5 5 5 5 4 3 3 3 2 1 3 4 4 3 4 11 13 10 9 9 10 8 10 8 6 6 6 4 1 1 4 6 8 7 3 6 6 9 9 8 8
5 8 9 15 15 10 2 17 10 9 10 9 16 12 3 2 8 9 10 12 11 8 10 10 10 9 9 8 7 6 7 7 7 7 6 7 7 8 7 7 6 7 5 4 4 5 6 6 5 6 6 6 6 7 9 7 7 6 5 4 3 2 3 1 1 1 1 3 4 5 5 5 5 6 10 11 10 9 8 3 3 2 1 3 1 7 7 8 7 6 6 9 10 10 9 9 10
7 5 9 10 9 10 8 16 10 8 9 8 10 11 9 5 6 8 12 12 10 9 8 8 9 10 9 9 7 6 6 6 6 6 6 7 8 7 6 6 6 6 5 6 6 6 7 6 5 4 5 6 6 7 8 8 8 8 8 8 6 6 4 4 3 3 1 2 4 5 5 5 4 3 2 2 3 3 3 4 2 2 3 4 5 7 8 8 5 5 6 8 9 9 9 8 8
4 6 11 5 9 8 4 1 8 7 15 6 3 11 7 3 5 10 13 11 7 8 8 7 9 10 9 9 8 7 7 7 6 6 6 7 8 6 5 7 6 6 6 7 6 6 6 6 6 6 8 7 7 7 7 7 7 7 7 7 7 6 7 7 7 5 4 3 3 5 4 4 4 4 3 3 3 4 5 4 2 3 1 2 5 5 5 6 8 9 8 8 6 5 5 8 8
7 7 8 7 9 4 3 4 2 6 12 10 8 10 6 4 9 9 5 8 9 8 9 8 9 10 9 8 7 8 7 6 6 6 5 7 6 5 6 6 6 5 5 5 6 5 5 6 7 7 7 6 6 8 8 8 8 7 7 8 9 8 7 7 7 7 7 6 5 5 5 5 5 4 4 4 5 5 5 3 1 1 2 5 4 4 5 3 4 8 10 8 8 9 7 8 9
5 12 8 8 9 5 2 3 4 3 9 11 15 12 9 3 10 14 14 11 14 11 8 9 9 8 9 8 8 6 6 6 6 6 6 6 5 5 6 6 5 5 5 5 5 6 6 7 7 7 5 5 6 7 8 9 8 8 7 8 9 10 9 8 8 8 7 9 9 8 8 7 6 5 5 5 4 5 5 3 2 3 3 7 6 3 4 4 6 7 7 8 9 9 8 8 8
6 6 6 6 7 3 2 2 3 3 4 5 10 9 12 5 5 6 3 11 16 15 16 14 12 11 8 7 8 7 6 5 6 6 6 7 6 6 5 6 6 6 6 6 6 5 4 3 4 4 4 5 6 7 7 7 8 9 10 10 10 9 9 8 8 6 7 8 9 8 7 7 6 5 4 4 5 4 3 3 3 1 3 4 5 6 7 7 4 6 5 6 6 8 8 8 9
9 5 4 5 2 2 3 1 2 5 6 4 6 9 4 6 2 1 11 16 13 10 12 14 13 12 10 9 8 8 7 7 7 6 6 6 5 5 6 6 5 5 4 4 4 2 2 2 3 4 5 5 4 4 6 8 8 8 9 10 10 9 10 10 9 9 8 8 7 8 8 8 7 7 6 7 6 6 5 6 5 5 5 5 4 3 3 3 2 5 6 8 9 8 9 9 9
11 9 5 3 3 3 4 2 2 0 3 6 7 9 4 2 3 5 12 10 14 14 11 11 11 11 10 9 8 7 7 8 7 6 5 5 4 6 6 5 4 3 4 3 2 2 2 2 3 5 5 4 3 4 5 6 7 8 9 8 7 8 9 9 9 10 10 8 7 9 9 9 9 9 9 8 7 6 6 6 4 4 4 5 5 5 5 4 5 6 6 7 8 6 6 10 10
7 4 5 6 3 3 4 2 3 5 3 7 6 8 4 7 3 5 12 14 14 12 12 10 10 10 9 9 9 10 9 8 7 7 6 5 7 6 5 3 2 2 2 1 1 3 3 4 4 5 5 5 4 4 4 6 6 6 8 8 8 8 7 6 6 8 9 10 9 9 9 9 9 10 10 9 9 7 7 6 5 5 5 4 5 5 5 5 5 6 5 6 4 5 8 10 10
4 2 2 4 9 4 3 4 2 1 4 3 7 2 2 6 6 9 10 13 13 13 12 11 9 9 9 9 9 8 9 9 8 6 5 4 4 4 3 3 2 2 3 3 3 3 3 4 6 5 4 4 4 4 4 5 5 5 5 8 7 7 7 7 7 7 8 8 8 9 9 9 8 9 9 10 10 10 9 7 6 6 5 5 6 6 6 6 6 7 8 7 7 6 9 11 10
6 4 8 8 3 1 1 1 2 5 3 4 1 5 7 7 7 10 11 12 14 14 13 10 9 8 8 9 7 8 8 9 7 5 4 3 4 4 3 2 2 2 3 3 1 2 3 4 6 6 7 6 6 3 4 4 5 5 6 6 8 8 8 8 7 8 8 8 8 9 8 8 8 8 9 10 11 12 10 9 8 7 7 6 6 6 6 7 7 7 7 7 9 8 5 6 6
3 10 6 1 4 4 5 4 1 2 2 2 2 7 9 8 4 8 12 13 13 13 14 12 9 10 10 8 7 7 7 8 8 7 4 3 4 3 2 2 1 1 2 2 3 4 6 5 4 5 6 6 6 4 4 6 6 5 6 7 7 7 7 6 6 7 7 7 8 8 9 10 10 10 9 9 10 12 11 11 8 8 8 7 8 8 7 8 7 7 8 9 8 7 9 9 9
5 5 6 7 6 9 2 5 3 4 4 4 3 9 8 5 6 10 14 15 15 14 13 11 11 10 9 9 9 7 5 5 6 5 5 4 3 3 2 3 4 3 4 4 5 5 4 5 4 5 5 5 5 5 6 6 6 5 4 4 4 5 6 6 6 7 6 7 8 9 11 9 10 10 9 9 9 11 12 12 12 12 11 10 9 9 8 7 8 9 8 7 7 7 5 7 5
8 4 6 8 2 1 1 4 4 8 3 5 6 8 4 3 9 12 14 13 14 14 12 12 11 10 7 7 7 6 5 4 4 4 4 5 4 5 5 5 5 6 7 6 7 7 7 6 7 5 6 7 8 9 8 8 6 5 5 3 4 4 6 7 7 8 7 9 9 10 11 10 11 9 10 11 11 12 13 14 13 13 13 11 10 9 8 8 8 8 8 7 8 8 7 9 7
6 4 3 6 4 2 4 1 4 6 4 7 7 2 3 2 1 14 17 16 17 15 13 11 10 9 9 8 7 6 6 4 3 4 6 5 5 5 5 5 5 5 6 7 7 8 6 5 6 6 7 7 8 9 8 7 6 6 5 6 6 6 8 7 8 8 8 9 9 10 10 10 10 11 11 12 12 12 12 12 12 16 17 17 15 12 8 7 7 8 8 8 7 6 7 5 2
4 4 4 6 8 4 6 6 1 1 4 5 7 3 1 0 3 4 14 16 15 15 15 12 11 11 9 8 8 7 6 3 3 4 4 4 5 4 4 5 5 6 6 7 7 6 7 6 6 8 8 8 8 9 8 7 6 7 6 7 6 5 6 6 8 9 9 9 10 10 10 11 11 11 11 12 12 11 11 11 12 15 14 14 14 16 18 14 11 8 8 5 4 5 4 3 3
Wind_Direction
311 304 280 272 271 270 347 264 50 300 82 240 250 265 262 236 244 276 282 341 74 27 59 59 68 60 90 112 106 88 49 95 280 158 181 99 114 107 106 111 111 106 108 114 113 112 114 114 115 115 115 115 115 115 113 111 110 108 107 105 104 104 103 103 103 101 96 93 91 92 88 83 81 82 83 83 87 88 92 94 91 91 91 91 91 90 90 90 90 89 94 93 84 89 88 88 92
310 305 283 245 261 130 318 195 99 303 146 288 254 262 247 272 287 268 353 79 71 90 69 80 85 93 103 114 121 87 41 42 59 86 97 117 109 104 115 115 117 113 114 117 112 110 110 112 113 113 113 116 116 115 114 113 112 111 109 107 104 104 106 105 104 102 99 96 95 93 88 86 87 86 86 86 84 82 79 87 90 90 88 88 88 87 84 85 86 83 81 88 96 88 85 84 87
336 347 330 286 263 215 288 339 187 219 199 250 262 219 275 304 269 140 99 85 102 102 90 78 85 87 95 89 45 59 107 70 78 77 97 118 103 112 110 113 116 118 119 112 107 109 108 113 115 115 116 117 117 117 116 115 114 114 112 109 107 106 107 107 105 102 99 97 95 95 93 90 89 89 88 88 88 85 84 85 86 83 84 86 84 85 83 90 91 94 94 84 79 82 83 82 75
325 273 240 344 328 113 307 321 167 196 224 221 283 264 265 213 50 55 128 99 119 107 81 70 68 57 87 76 99 87 101 78 89 111 113 95 109 121 115 115 118 117 112 115 111 110 111 116 117 117 120 121 121 119 118 117 116 115 114 112 110 109 109 108 108 106 102 101 101 98 97 95 91 92 91 91 91 89 87 83 83 84 81 78 81 84 87 81 81 78 77 78 79 82 85 86 88
315 288 196 243 245 281 171 205 198 157 230 217 224 268 237 160 121 101 60 116 79 102 101 106 86 56 73 93 107 73 117 118 98 76 89 96 112 119 117 121 121 115 112 112 112 117 119 120 120 121 123 124 123 121 119 117 117 115 115 116 113 111 112 111 109 102 106 106 101 98 97 98 99 99 97 95 92 92 91 89 81 77 76 74 73 76 76 78 78 78 79 82 80 80 88 99 101
256 283 243 155 202 305 6 299 260 231 228 223 246 248 231 339 95 110 122 61 61 80 93 82 103 96 68 47 57 122 139 116 121 98 110 122 123 124 124 123 118 108 108 109 115 116 124 124 124 127 126 127 126 125 121 119 118 117 117 121 118 114 113 113 112 106 110 105 97 94 93 96 100 99 103 99 96 92 87 80 75 74 74 75 78 80 85 83 82 82 80 79 77 78 80 84 77
277 17 308 115 297 285 211 235 252 245 249 226 240 256 261 221 163 52 84 58 57 89 96 104 109 95 82 99 54 36 87 124 115 118 110 122 122 123 126 115 103 107 110 109 110 117 123 126 127 127 129 129 127 124 124 123 122 122 123 126 124 118 116 115 114 113 110 99 90 89 89 97 107 106 103 104 98 89 84 79 76 73 70 70 72 72 77 81 81 82 80 77 77 73 73 61 52
244 48 265 125 244 137 236 241 254 243 258 240 253 280 92 245 127 72 102 95 35 88 98 111 92 82 68 65 97 58 66 79 102 107 117 123 125 128 117 109 108 107 106 108 112 120 129 128 128 129 130 128 126 126 126 129 127 126 125 126 124 118 115 113 108 102 101 92 86 84 85 93 104 106 104 103 95 87 83 82 79 74 71 68 66 69 76 81 81 81 79 78 73 61 12 26 22
263 156 265 335 265 265 253 236 243 240 258 260 263 251 154 159 81 50 29 99 150 103 116 118 106 91 108 81 76 75 81 98 102 108 116 126 127 124 116 116 113 107 103 108 117 123 128 131 128 128 125 123 126 128 131 131 129 127 126 127 123 115 112 108 102 93 88 89 84 87 88 91 97 99 103 100 96 90 85 81 79 78 76 73 70 75 83 84 83 84 86 85 73 35 348 10 14
274 171 270 203 173 234 252 256 245 239 237 237 239 233 266 165 125 119 50 149 125 112 106 95 92 108 112 95 104 97 110 107 109 111 115 112 113 114 105 102 100 101 104 114 124 129 132 132 126 123 122 127 131 133 132 130 128 128 127 123 118 115 106 103 101 95 94 96 92 89 89 92 96 98 100 102 99 94 86 83 80 77 77 78 79 80 80 85 89 90 91 80 61 10 350 356 359
265 198 202 278 273 265 236 258 250 266 250 253 219 157 180 156 101 133 170 282 119 105 109 97 86 105 97 86 85 125 110 100 99 103 107 110 110 90 92 93 101 109 118 128 134 132 129 126 128 127 132 134 133 131 128 124 121 119 115 113 113 106 107 108 108 102 98 96 97 98 95 95 97 99 99 98 96 94 90 83 80 77 75 76 80 84 88 89 91 86 76 72 53 354 348 343 345
268 248 156 210 243 222 252 249 259 264 260 259 229 169 149 88 53 87 190 224 110 122 122 112 137 110 86 115 116 113 99 103 108 112 113 107 98 97 93 91 88 97 125 137 133 121 122 132 136 139 133 132 129 126 122 119 116 112 111 110 107 105 106 110 107 104 103 104 105 104 98 97 98 94 93 91 91 90 87 82 80 79 75 74 79 86 88 90 87 87 85 72 49 357 327 342 339
221 250 241 215 229 224 252 262 268 273 277 218 184 99 122 97 101 159 254 161 114 142 107 115 135 100 114 106 125 101 98 108 109 102 97 95 95 93 83 77 92 132 128 123 119 122 127 131 128 120 124 123 118 116 118 118 116 113 113 114 114 116 118 117 115 112 110 108 110 104 101 101 99 96 91 90 89 87 82 82 76 76 77 76 80 91 98 99 95 94 95 85 50 350 328 330 332
201 207 216 260 256 250 253 259 264 274 282 249 117 150 90 96 143 201 232 121 93 84 121 113 102 97 98 109 98 108 119 114 108 107 101 94 83 70 77 103 130 145 138 125 119 127 128 116 106 118 121 110 113 115 116 116 115 112 111 112 114 120 127 126 120 111 110 114 115 115 115 115 117 116 117 114 104 89 86 89 81 70 72 72 68 82 104 105 113 105 102 110 89 334 326 317 320
228 232 246 242 270 290 260 265 267 280 284 177 185 120 120 79 140 322 190 85 95 117 104 106 125 97 187 145 149 139 135 123 116 106 99 84 76 71 74 133 145 141 115 110 122 129 123 114 115 120 115 111 108 103 103 113 114 114 112 109 109 107 101 109 120 121 122 126 130 125 117 116 116 118 121 122 123 123 109 89 93 75 68 67 69 69 119 124 117 120 116 113 129 306 308 311 316
215 233 217 263 267 256 271 270 282 264 272 202 207 118 100 124 57 15 53 112 91 78 99 108 189 104 157 145 138 133 124 119 117 110 97 86 83 79 81 113 114 82 67 71 101 115 116 120 133 131 126 129 121 111 104 106 113 115 116 114 112 110 111 120 133 131 132 132 129 127 130 130 129 132 133 125 129 136 130 123 106 93 75 69 69 91 115 141 139 133 129 130 147 204 292 310 310
231 206 279 278 274 257 258 262 290 264 175 200 131 98 101 132 105 102 93 81 82 70 64 49 64 114 125 119 125 124 117 106 102 100 102 97 93 90 86 355 63 71 87 72 72 74 115 127 137 130 138 137 132 123 116 113 121 116 115 120 121 116 116 120 133 133 134 137 133 133 136 134 144 142 141 144 148 135 112 122 145 130 122 90 109 149 174 155 150 149 146 150 181 211 241 285 293
212 216 204 252 242 260 262 266 301 287 101 206 311 127 119 145 131 118 104 86 88 85 82 75 72 76 98 108 111 114 121 113 112 107 101 99 98 105 92 53 78 91 65 75 82 87 101 114 99 105 110 117 127 124 125 124 124 118 120 124 127 126 124 127 124 142 141 154 149 142 112 116 85 92 164 162 158 161 139 163 161 151 137 139 141 177 184 172 169 166 166 172 200 219 246 256 283
196 215 199 239 220 254 265 269 338 43 268 218 145 163 149 185 117 118 104 109 92 83 81 91 83 82 85 93 104 115 118 123 122 122 120 117 118 125 131 167 107 102 102 98 84 89 88 96 96 101 104 107 116 127 129 134 132 135 138 147 147 140 142 133 149 145 138 164 152 136 156 120 109 190 209 153 171 150 152 156 170 168 164 172 178 194 191 189 175 181 180 187 199 234 258 285 286
221 202 230 240 239 259 278 320 28 2 331 54 88 10 214 128 98 129 126 106 103 106 108 95 105 109 108 109 114 119 118 112 107 116 112 113 122 136 143 148 133 120 120 147 131 67 81 92 102 106 107 101 107 122 126 133 138 139 161 165 149 144 132 109 94 82 80 71 79 113 150 128 148 199 238 167 167 150 151 154 163 183 190 189 201 207 208 203 189 186 195 191 189 247 269 282 285
190 219 233 235 234 269 279 33 24 343 354 12 22 13 86 130 120 141 132 111 112 123 132 128 127 125 119 121 118 112 100 83 85 102 110 117 125 128 132 148 136 129 133 128 107 115 100 103 108 108 110 103 102 105 114 121 116 127 162 139 120 107 86 85 101 85 101 108 117 94 172 144 183 191 307 356 66 129 129 136 158 184 201 189 190 195 215 223 179 193 199 191 175 217 258 263 268
220 218 236 264 288 295 275 136 77 344 343 348 359 48 78 318 105 123 124 87 132 136 132 124 123 123 119 120 118 107 90 80 86 94 103 112 118 115 114 108 104 112 118 118 166 128 94 92 107 120 114 119 115 110 113 113 105 110 104 96 94 72 79 95 117 125 153 129 136 168 197 147 114 195 324 332 67 99 122 137 192 221 234 224 183 194 208 213 191 201 195 197 199 201 224 249 254
238 268 264 238 241 251 272 8 57 26 353 339 0 334 69 2 35 111 90 112 117 125 128 122 120 119 118 117 117 99 81 79 77 83 97 100 106 115 120 131 136 136 146 148 150 108 113 115 115 115 115 120 124 119 107 101 115 119 102 95 102 102 109 134 160 132 178 147 116 172 184 192 106 263 166 60 95 84 103 119 212 240 254 243 213 193 209 211 198 202 195 207 197 201 223 232 238
210 254 233 244 239 244 307 80 75 32 357 300 322 324 125 50 330 131 117 142 136 132 125 118 117 119 121 116 94 90 92 86 85 87 88 99 112 124 135 136 133 123 126 137 132 132 135 133 133 126 125 134 134 124 124 124 129 120 131 95 96 128 131 166 204 137 162 101 131 172 184 194 147 197 194 157 104 113 118 165 150 262 274 266 277 238 221 210 210 205 204 199 205 217 226 232 239
237 242 264 283 287 250 101 90 57 39 286 284 325 317 139 170 199 46 103 96 114 115 109 115 118 116 109 96 96 97 92 90 90 89 86 93 100 104 102 106 111 115 114 123 125 122 126 137 141 144 148 145 136 132 129 131 134 129 119 192 213 165 153 166 183 174 161 183 162 166 192 193 166 162 167 187 168 170 161 162 186 219 249 275 285 292 273 264 242 218 203 197 197 219 229 269 333
218 247 242 260 261 255 170 123 139 230 243 208 329 277 271 193 98 56 83 103 110 114 115 116 114 110 99 99 105 103 96 93 94 94 98 95 103 107 110 112 110 112 119 121 103 105 122 143 144 148 146 137 131 123 132 130 128 124 154 198 226 174 140 160 171 182 193 159 160 183 185 167 167 168 169 182 179 194 184 186 197 218 223 243 246 255 247 274 297 298 254 214 187 163 41 5 16
189 219 237 255 265 285 191 145 104 232 230 127 252 253 270 263 125 174 119 121 123 121 118 112 106 97 96 97 96 96 94 92 94 100 95 97 96 105 113 111 112 113 112 111 112 115 125 133 142 144 135 140 127 119 116 118 120 143 143 158 202 180 170 159 161 155 154 144 153 168 179 172 174 181 175 179 201 183 201 219 223 215 239 242 249 265 282 274 298 289 311 348 75 104 183 194 1
232 210 229 244 268 272 341 95 187 133 234 179 190 243 254 333 118 165 161 127 119 118 117 114 105 104 100 96 94 91 92 87 77 86 95 97 102 110 117 127 124 121 120 120 120 110 105 103 107 116 128 140 122 110 113 125 144 142 142 168 175 187 193 183 148 151 177 212 191 193 180 172 175 193 175 187 198 178 198 227 233 223 230 226 226 249 249 216 230 275 309 312 160 154 201 21 328
238 191 298 240 248 258 206 163 206 147 246 198 185 251 259 162 160 170 146 138 126 121 122 104 101 101 99 94 92 85 85 85 95 92 98 99 101 102 108 129 134 122 115 127 131 117 122 122 109 113 101 100 99 101 105 152 166 163 157 154 157 166 212 226 171 155 180 204 206 202 197 181 176 185 194 190 200 194 194 205 216 222 226 215 222 234 248 233 217 237 352 348 292 230 145 196 245
230 147 211 297 273 257 214 170 203 187 219 209 141 175 226 182 213 180 148 146 128 125 117 106 105 101 98 99 93 84 83 102 112 121 121 118 108 104 108 126 130 126 130 128 131 125 130 138 125 132 130 105 101 104 116 140 171 158 141 136 148 155 196 208 217 159 176 190 191 199 216 203 189 186 184 194 199 200 204 211 213 220 224 222 221 227 241 238 234 194 90 76 281 272 241 204 199
227 162 153 214 154 251 229 179 201 225 182 209 119 143 218 208 240 145 146 133 114 121 111 109 104 103 103 99 99 105 105 113 115 112 107 105 111 107 101 117 126 122 125 135 141 137 125 133 141 112 89 94 113 131 142 173 224 152 128 138 154 172 191 203 225 160 126 185 203 204 214 211 193 183 186 195 210 208 207 209 214 226 231 229 229 222 221 238 224 204 165 192 157 281 285 269 212
204 224 225 224 187 256 228 186 192 213 183 206 134 157 227 205 166 159 158 131 108 109 111 105 106 109 111 113 115 111 99 59 50 89 95 105 109 96 88 90 106 122 128 131 124 132 131 140 158 157 120 123 132 140 154 165 215 78 70 91 152 164 183 231 279 40 261 228 202 199 196 199 186 187 193 193 208 215 213 216 220 218 217 219 230 236 223 228 219 210 209 186 189 193 212 265 260
192 168 199 205 192 239 219 190 203 209 194 195 165 190 222 213 165 151 145 112 90 76 86 103 106 109 112 115 103 91 83 46 44 88 95 89 81 90 80 70 61 61 85 122 120 102 94 70 50 263 141 145 131 141 111 132 165 141 137 144 204 144 144 167 234 116 242 248 245 254 218 201 193 193 198 197 201 211 215 216 214 212 210 209 220 221 226 223 212 216 221 201 184 210 205 228 274
230 169 209 205 199 215 244 188 199 209 196 182 197 195 264 157 161 132 118 94 102 106 111 104 108 112 108 97 92 94 98 96 86 94 80 74 86 77 68 63 60 60 71 92 113 113 107 85 31 353 347 351 59 94 102 128 97 2 70 135 155 294 343 121 91 23 286 263 226 212 227 223 218 200 204 210 205 210 214 224 228 216 203 202 211 224 232 219 214 206 232 220 194 199 219 218 229
199 164 210 259 243 210 205 167 200 203 194 194 193 123 322 145 130 132 84 89 92 112 121 123 117 111 105 101 102 101 90 81 82 80 101 82 70 69 76 80 74 68 53 69 87 77 91 66 86 92 354 358 10 34 98 81 74 42 353 344 356 142 177 231 158 204 228 259 279 259 222 238 239 215 204 205 201 203 209 223 239 230 200 199 205 224 236 228 211 208 219 228 196 215 223 226 215
201 170 192 216 229 232 219 179 181 191 183 200 163 158 207 119 82 68 84 94 90 96 105 104 102 103 103 101 98 91 84 69 60 54 49 52 53 53 53 53 51 45 40 36 59 72 82 104 104 109 49 318 353 50 89 82 90 142 179 229 299 331 315 289 203 180 190 227 252 292 312 299 256 220 208 209 212 205 201 211 233 251 226 205 212 223 228 221 216 211 226 224 220 225 236 241 247
223 190 192 212 226 249 222 172 176 182 146 184 164 146 149 99 81 96 81 85 92 99 98 101 100 96 94 94 88 83 74 73 66 60 56 54 53 56 58 52 54 53 41 43 49 52 46 59 107 125 166 214 138 78 58 80 84 339 199 171 165 172 307 317 315 316 309 229 170 193 236 242 231 252 245 231 239 230 217 215 219 243 238 215 215 224 224 225 220 210 222 223 225 235 249 224 226
246 215 195 211 217 234 220 174 176 176 138 177 180 134 82 72 81 77 82 78 88 95 100 96 92 86 86 89 86 80 84 69 59 52 46 49 49 53 56 52 47 50 37 41 38 41 40 37 32 28 26 59 41 93 142 132 181 177 200 235 132 159 215 248 278 306 291 309 313 293 201 176 254 267 254 249 246 228 224 220 224 230 229 228 222 226 226 221 214 208 197 234 211 212 239 203 208
254 254 286 239 225 229 236 170 174 180 133 177 142 106 90 91 82 74 79 82 74 71 73 73 86 84 79 77 80 81 73 66 61 60 50 46 49 53 56 58 56 55 50 46 32 36 31 25 18 1 5 39 42 37 75 86 247 204 176 248 210 163 154 178 159 228 249 278 286 290 295 298 240 201 222 221 223 228 226 223 223 223 220 221 228 233 235 238 230 218 197 206 227 221 237 222 197
243 264 236 250 245 204 230 165 173 175 161 156 112 101 102 93 86 82 79 92 88 79 78 74 66 73 72 68 72 79 73 66 64 56 51 46 46 52 54 54 50 51 47 41 34 34 33 22 20 22 23 34 35 20 18 343 268 294 239 207 233 177 217 180 177 179 184 192 208 242 278 285 292 287 257 223 219 208 206 214 219 219 216 209 214 227 253 262 254 249 245 242 235 241 220 239 202
247 232 240 251 258 236 171 168 162 173 138 114 103 89 85 103 104 99 93 93 94 91 89 83 78 75 75 67 64 61 69 70 67 60 55 52 51 49 52 57 53 53 49 43 33 30 21 24 31 29 23 21 23 15 5 359 11 23 353 336 329 351 23 6 270 285 237 195 176 182 209 245 272 281 286 284 269 257 229 213 206 210 211 216 201 207 271 283 299 270 239 225 226 232 235 225 227
247 240 228 241 259 258 170 161 149 159 72 133 118 73 51 126 112 121 122 103 93 97 91 91 87 84 73 72 72 68 69 62 72 67 63 64 62 57 51 48 54 55 54 40 36 31 31 22 24 26 25 26 17 8 6 2 9 17 12 23 7 2 341 350 336 16 11 345 297 256 193 189 199 220 243 260 263 248 251 238 226 209 202 215 39 355 216 225 239 232 298 276 267 245 237 232 233
219 243 227 241 247 274 309 166 144 162 146 178 138 131 184 156 130 140 123 109 104 94 94 99 96 86 84 81 83 76 80 83 72 74 68 67 66 64 57 52 49 53 49 47 43 41 32 28 23 28 27 23 15 12 6 8 5 7 16 24 10 329 324 277 327 7 18 300 296 298 284 282 263 198 191 213 224 229 240 256 270 272 78 57 86 247 244 233 224 228 226 224 222 220 225 238 229
239 243 243 239 251 258 281 173 153 166 135 165 143 134 138 179 181 145 123 114 116 107 102 102 102 99 94 97 94 94 95 93 93 84 82 75 70 66 62 59 52 49 45 44 39 30 30 21 19 35 33 29 16 11 10 10 11 6 11 19 10 6 357 312 310 308 285 269 284 273 273 269 265 297 278 258 268 262 272 237 239 312 268 118 195 220 231 240 230 216 222 236 245 239 229 227 235
219 238 252 249 241 253 277 214 151 150 130 184 129 113 88 179 168 143 135 120 131 128 120 116 109 107 109 103 102 101 94 93 97 97 89 81 72 63 69 60 49 42 45 44 33 25 22 16 19 29 34 23 10 9 11 14 19 16 12 11 12 12 12 5 351 339 316 288 288 294 302 303 326 323 332 309 280 269 257 268 155 223 239 143 212 230 222 215 228 240 238 229 241 280 269 252 242
219 256 263 264 264 252 218 186 231 145 126 181 175 152 119 175 159 152 151 127 154 142 135 129 123 120 120 115 117 110 103 99 93 88 90 88 85 82 68 69 53 45 50 50 41 25 22 17 16 23 40 28 15 14 16 17 17 17 19 11 13 9 11 9 11 359 355 348 340 331 325 330 324 325 320 315 311 301 280 246 113 204 230 271 243 211 230 192 224 229 234 233 225 232 234 242 237
140 226 256 268 260 248 257 143 163 79 178 186 189 174 152 146 194 167 168 195 163 141 137 133 123 121 123 125 120 115 109 108 105 96 84 74 80 78 77 68 64 46 42 46 38 28 18 22 11 11 34 32 25 28 22 19 17 17 16 11 16 9 6 9 6 2 359 0 2 356 354 337 322 313 304 299 291 291 298 298 218 210 225 232 240 233 259 224 214 241 251 244 234 227 232 243 252
181 210 220 270 306 235 26 0 96 161 253 220 163 166 159 130 213 201 94 98 139 143 144 142 135 129 129 127 124 118 112 100 91 89 81 72 61 60 59 62 51 45 42 42 42 24 16 16 358 8 12 38 35 31 28 27 29 15 14 16 15 8 5 4 0 357 9 0 356 347 342 336 330 314 302 294 296 310 326 317 304 285 219 221 231 207 219 237 209 230 240 272 258 237 233 231 239
207 205 193 179 269 119 267 83 190 208 199 214 159 132 111 30 295 310 114 132 128 128 137 137 134 133 130 127 128 126 126 116 104 84 76 71 73 66 54 44 48 45 42 49 43 32 341 331 347 29 29 39 50 50 42 30 26 28 27 17 12 6 6 4 357 2 7 3 353 345 340 339 333 334 339 338 332 328 322 309 305 306 301 280 267 248 247 243 220 237 238 244 246 229 228 233 237
195 204 168 153 169 178 217 249 163 220 167 162 167 79 91 181 15 355 96 105 120 123 122 125 128 131 131 128 118 112 103 96 88 84 78 75 73 67 56 51 41 40 56 43 21 341 319 325 354 54 45 35 36 55 58 54 40 31 33 23 13 11 9 359 1 6 1 356 352 343 343 341 339 339 337 341 331 323 317 301 293 284 270 265 267 258 247 238 248 242 222 234 235 224 227 236 237
189 197 148 160 169 157 194 159 176 198 218 167 130 77 196 164 153 76 95 102 104 108 113 114 119 125 127 127 122 109 101 86 74 68 62 62 68 69 71 60 34 52 65 62 39 1 351 6 26 54 42 18 22 50 66 68 61 52 38 23 13 9 5 6 10 5 1 355 348 345 347 348 345 342 340 337 333 328 319 307 298 296 285 280 284 278 258 247 245 248 249 245 246 253 233 230 228
209 178 124 204 229 137 142 199 127 205 152 128 21 121 58 92 107 91 98 105 107 112 116 123 127 135 135 126 118 119 112 100 92 82 65 55 62 81 73 53 44 47 41 34 33 7 8 12 43 50 40 12 22 58 67 78 84 67 59 40 25 14 9 14 12 9 356 346 345 349 347 344 340 338 338 338 337 333 326 326 322 308 303 298 289 278 275 268 251 255 262 267 263 239 236 228 228
213 199 209 216 199 131 120 104 113 97 68 17 247 81 93 113 93 122 116 116 118 126 129 131 136 132 114 111 112 104 100 102 92 80 66 45 72 85 87 72 53 52 65 64 27 359 355 32 47 42 28 5 11 57 71 70 69 70 57 49 40 23 20 17 12 5 358 356 355 352 345 339 334 341 343 344 339 334 331 332 327 323 317 306 299 290 276 268 259 254 254 254 252 249 250 264 253
155 205 215 266 227 176 137 189 222 118 150 184 247 142 138 154 155 151 138 131 141 136 139 136 120 102 99 95 93 96 106 111 117 121 113 83 69 84 124 134 136 99 99 60 24 19 41 59 65 51 29 9 5 45 63 63 60 55 54 52 43 38 26 19 11 10 7 3 2 358 350 347 346 341 344 342 338 340 338 339 335 331 318 304 293 288 282 277 267 261 254 256 256 247 236 236 229
175 217 146 203 193 243 283 108 183 158 166 113 138 158 151 177 145 161 156 151 150 145 137 125 111 108 108 107 101 100 98 97 105 110 104 100 85 43 58 77 48 47 43 43 25 21 46 59 61 55 29 5 14 35 50 50 53 56 54 57 51 39 38 25 23 17 10 8 14 5 356 346 344 346 346 341 350 357 356 350 345 336 326 315 301 290 285 281 277 271 264 257 250 241 224 250 247
258 293 228 179 128 149 99 191 164 123 188 107 145 163 192 203 155 162 156 154 147 139 131 122 119 119 116 109 106 105 94 88 102 114 112 104 87 68 56 47 48 46 50 42 37 29 33 41 44 33 21 23 29 37 42 40 38 46 43 37 29 41 42 31 32 19 19 17 20 11 1 354 351 347 350 350 0 360 359 355 347 336 329 320 310 299 289 282 280 273 269 261 254 240 234 237 230
250 241 240 193 195 156 116 296 167 157 160 146 135 189 247 300 136 171 157 147 145 143 133 129 127 123 117 111 105 97 92 91 83 90 97 97 92 76 58 48 46 50 52 46 34 29 23 30 37 27 34 29 34 40 39 35 25 27 35 28 28 40 41 39 33 21 27 28 25 15 8 360 355 360 355 358 2 359 359 356 353 359 354 352 337 322 302 290 288 285 276 266 261 246 241 244 171
196 166 198 191 182 176 216 272 289 141 119 154 137 180 114 341 52 234 148 138 139 137 133 131 128 123 116 112 106 113 114 116 105 97 86 83 86 82 69 52 43 47 51 58 43 31 23 16 28 41 32 32 43 43 37 23 19 24 28 23 28 38 41 41 38 26 32 33 28 22 12 8 6 358 2 0 2 357 1 357 18 14 11 6 3 5 0 348 332 317 308 306 283 259 224 210 190